Location: Spor
(46.2167°N, 11.0500°E)
Time: 01:39:16
(UTC+00:00)

GEOS 3 Rocket - Pass Details

Date: 07 June 2020
Orbit: 772 x 847 km, 115.0° (Epoch: 15 July)

Event Time Altitude Azimuth Distance (km) Brightness Sun altitude
Rises 01:48:54 0° 153° (SSE) 3,285 6.5 -12.7°
Reaches altitude 10° 01:51:12 10° 157° (SSE) 2,369 5.7 -12.4°
Maximum altitude 01:56:15 56° 236° (SW) 960 3.7 -11.9°
Drops below altitude 10° 02:01:26 10° 314° (NW) 2,432 6.2 -11.4°
Sets 02:03:50 0° 319° (NW) 3,379 7.0 -11.1°
